Location: Drocourt
(49.0571°N, 1.7669°E)
Time: 19:07:40
(UTC+00:00)

Cosmos 1606 - Pass Details

Date: 09 February 2023
Orbit: 488 x 509 km, 82.5° (Epoch: 26 March)

Event Time Altitude Azimuth Distance (km) Brightness Sun altitude
Rises 18:14:21 0° 352° (N) 2,655 6.3 -12.1°
Reaches altitude 10° 18:16:31 10° 356° (N) 1,762 5.4 -12.5°
Maximum altitude 18:20:22 65° 78° (ENE) 572 2.6 -13.1°
Drops below altitude 10° 18:24:10 10° 162° (SSE) 1,739 5.2 -13.7°
Sets 18:26:17 0° 165° (SSE) 2,617 6.2 -14.1°
